Location: Bruch
(44.2051°N, 0.4120°E)
Time: 03:57:15
(UTC+00:00)

SMAP - Pass Details

Date: 29 November 2020
Orbit: 681 x 683 km, 98.1° (Epoch: 24 January)

Event Time Altitude Azimuth Distance (km) Brightness Sun altitude
Rises 06:16:29 0° 14° (NNE) 3,059 6.3 -9.8°
Reaches altitude 10° 06:18:44 10° 15° (NNE) 2,139 5.6 -9.4°
Maximum altitude 06:23:25 80° 102° (ESE) 700 3.2 -8.6°
Drops below altitude 10° 06:28:04 10° 191° (S) 2,120 5.8 -7.9°
Sets 06:30:18 0° 192° (SSW) 3,031 6.5 -7.5°
